• En Estados Unidos
  • Lista de países
  • Para 7 días
  • Temperatura del agua
  • Mapa Satelital
  • El tiempo en el mapa
  • Informadores
  • user-avatar
    Iniciar sesión

    Tiempo cada hora Canillo

    Hoy, 25 Septiembre, Martes

    Tiempo Temperatura Precipitaciones Viento Presión Humedad
    00:00 +5°C° 0 mm 2 mps 624 mmHg 62%
    01:00 +5°C° 0 mm 2 mps 624 mmHg 61%
    02:00 +6°C° 0 mm 1 mps 624 mmHg 60%
    03:00 +6°C° 0 mm 1 mps 624 mmHg 59%
    04:00 +6°C° 0 mm 1 mps 624 mmHg 61%
    05:00 +6°C° 0 mm 1 mps 624 mmHg 63%
    06:00 +5°C° 0 mm 1 mps 624 mmHg 64%
    07:00 +8°C° 0 mm 1 mps 625 mmHg 60%
    08:00 +10°C° 0 mm 1 mps 626 mmHg 55%
    09:00 +13°C° 0 mm 1 mps 628 mmHg 51%
    10:00 +14°C° 0 mm 2 mps 628 mmHg 49%
    11:00 +15°C° 0 mm 2 mps 628 mmHg 47%
    12:00 +16°C° 0 mm 2 mps 629 mmHg 45%
    13:00 +16°C° 0 mm 2 mps 628 mmHg 48%
    14:00 +15°C° 0 mm 2 mps 628 mmHg 51%
    15:00 +15°C° 0 mm 2 mps 628 mmHg 54%
    16:00 +13°C° 0 mm 2 mps 627 mmHg 61%
    17:00 +12°C° 0 mm 2 mps 627 mmHg 69%
    18:00 +10°C° 0 mm 1 mps 626 mmHg 76%
    19:00 +10°C° 0 mm 1 mps 626 mmHg 79%
    20:00 +9°C° 0 mm 1 mps 626 mmHg 82%
    21:00 +9°C° 0 mm 1 mps 627 mmHg 85%
    22:00 +8°C° 0 mm 1 mps 627 mmHg 85%
    23:00 +7°C° 0 mm 2 mps 626 mmHg 85%

    Mañana, 26 Septiembre, Miércoles

    Tiempo Temperatura Precipitaciones Viento Presión Humedad
    00:00 +7°C° 0 mm 2 mps 626 mmHg 84%
    01:00 +7°C° 0 mm 2 mps 626 mmHg 83%
    02:00 +6°C° 0 mm 2 mps 626 mmHg 82%
    03:00 +6°C° 0 mm 2 mps 626 mmHg 81%
    04:00 +6°C° 0 mm 2 mps 626 mmHg 80%
    05:00 +6°C° 0 mm 2 mps 626 mmHg 79%
    06:00 +6°C° 0 mm 2 mps 626 mmHg 79%
    07:00 +8°C° 0 mm 2 mps 628 mmHg 71%
    08:00 +12°C° 0 mm 2 mps 629 mmHg 63%
    09:00 +13°C° 0 mm 3 mps 630 mmHg 55%
    10:00 +14°C° 0 mm 3 mps 631 mmHg 51%
    11:00 +17°C° 0 mm 3 mps 631 mmHg 47%
    12:00 +18°C° 0 mm 3 mps 631 mmHg 43%
    13:00 +18°C° 0 mm 3 mps 631 mmHg 44%
    14:00 +18°C° 0 mm 3 mps 631 mmHg 45%
    15:00 +17°C° 0 mm 3 mps 631 mmHg 45%
    16:00 +14°C° 0 mm 3 mps 630 mmHg 54%
    17:00 +13°C° 0 mm 2 mps 629 mmHg 63%
    18:00 +10°C° 0 mm 2 mps 628 mmHg 72%
    19:00 +9°C° 0 mm 2 mps 628 mmHg 75%
    20:00 +9°C° 0 mm 2 mps 628 mmHg 77%
    21:00 +9°C° 0 mm 1 mps 628 mmHg 80%
    22:00 +9°C° 0 mm 1 mps 628 mmHg 81%
    23:00 +8°C° 0 mm 1 mps 628 mmHg 81%

    Pasado mañana, 27 Septiembre, Jueves

    Tiempo Temperatura Precipitaciones Viento Presión Humedad
    00:00 +8°C° 0 mm 1 mps 628 mmHg 81%
    01:00 +8°C° 0 mm 1 mps 628 mmHg 80%
    02:00 +8°C° 0 mm 1 mps 627 mmHg 80%
    03:00 +8°C° 0 mm 1 mps 627 mmHg 80%
    04:00 +8°C° 0 mm 1 mps 627 mmHg 79%
    05:00 +8°C° 0 mm 1 mps 627 mmHg 79%
    06:00 +8°C° 0 mm 1 mps 627 mmHg 79%
    07:00 +10°C° 0 mm 1 mps 628 mmHg 69%
    08:00 +13°C° 0 mm 1 mps 629 mmHg 60%
    09:00 +16°C° 0 mm 1 mps 631 mmHg 51%
    10:00 +17°C° 0 mm 2 mps 631 mmHg 48%
    11:00 +18°C° 0 mm 2 mps 631 mmHg 45%
    12:00 +20°C° 0 mm 2 mps 631 mmHg 42%
    13:00 +20°C° 0 mm 2 mps 631 mmHg 43%
    14:00 +20°C° 0 mm 2 mps 630 mmHg 44%
    15:00 +19°C° 0 mm 2 mps 630 mmHg 45%
    16:00 +18°C° 0 mm 1 mps 629 mmHg 55%
    17:00 +14°C° 0 mm 1 mps 628 mmHg 66%
    18:00 +12°C° 0 mm 1 mps 627 mmHg 76%
    19:00 +11°C° 0 mm 1 mps 626 mmHg 78%
    20:00 +11°C° 0 mm 1 mps 626 mmHg 80%
    21:00 +10°C° 0 mm 1 mps 626 mmHg 81%
    22:00 +10°C° 0 mm 1 mps 626 mmHg 81%
    23:00 +10°C° 0 mm 1 mps 625 mmHg 80%

    28 Septiembre, Viernes

    Tiempo Temperatura Precipitaciones Viento Presión Humedad
    00:00 +10°C° 0 mm 1 mps 625 mmHg 79%
    01:00 +10°C° 0 mm 1 mps 625 mmHg 76%
    02:00 +9°C° 0 mm 1 mps 624 mmHg 73%
    03:00 +9°C° 0 mm 1 mps 624 mmHg 70%
    04:00 +9°C° 0 mm 1 mps 624 mmHg 66%
    05:00 +8°C° 0 mm 2 mps 624 mmHg 63%
    06:00 +8°C° 0 mm 2 mps 623 mmHg 59%
    07:00 +12°C° 0 mm 2 mps 625 mmHg 53%
    08:00 +14°C° 0 mm 1 mps 626 mmHg 47%
    09:00 +18°C° 0 mm 1 mps 627 mmHg 40%
    10:00 +19°C° 0 mm 1 mps 627 mmHg 38%
    11:00 +21°C° 0 mm 1 mps 627 mmHg 35%
    12:00 +21°C° 0 mm 2 mps 627 mmHg 33%
    13:00 +21°C° 0 mm 2 mps 627 mmHg 34%
    14:00 +20°C° 0 mm 2 mps 626 mmHg 35%
    15:00 +20°C° 0 mm 2 mps 626 mmHg 36%
    16:00 +18°C° 0 mm 2 mps 625 mmHg 44%
    17:00 +15°C° 0 mm 2 mps 624 mmHg 52%
    18:00 +13°C° 0 mm 2 mps 623 mmHg 60%
    19:00 +12°C° 0 mm 2 mps 622 mmHg 61%
    20:00 +10°C° 0 mm 2 mps 622 mmHg 63%
    21:00 +10°C° 0 mm 2 mps 622 mmHg 64%
    22:00 +9°C° 0 mm 2 mps 622 mmHg 63%
    23:00 +9°C° 0 mm 2 mps 622 mmHg 62%

    29 Septiembre, Sábado

    Tiempo Temperatura Precipitaciones Viento Presión Humedad
    00:00 +9°C° 0 mm 2 mps 621 mmHg 61%
    01:00 +9°C° 0 mm 2 mps 621 mmHg 63%
    02:00 +9°C° 0 mm 2 mps 621 mmHg 64%
    03:00 +9°C° 0 mm 2 mps 621 mmHg 65%
    04:00 +8°C° 0 mm 2 mps 621 mmHg 67%
    05:00 +8°C° 0 mm 2 mps 621 mmHg 69%
    06:00 +8°C° 0 mm 2 mps 620 mmHg 71%
    07:00 +12°C° 0 mm 1 mps 622 mmHg 62%
    08:00 +15°C° 0 mm 1 mps 623 mmHg 54%
    09:00 +18°C° 0 mm 1 mps 624 mmHg 45%
    10:00 +19°C° 0 mm 1 mps 624 mmHg 42%
    11:00 +21°C° 0 mm 1 mps 624 mmHg 39%
    12:00 +22°C° 0 mm 1 mps 625 mmHg 35%
    13:00 +21°C° 0 mm 1 mps 624 mmHg 37%
    14:00 +21°C° 0 mm 1 mps 624 mmHg 39%
    15:00 +20°C° 0 mm 1 mps 623 mmHg 40%
    16:00 +18°C° 0 mm 1 mps 623 mmHg 47%
    17:00 +16°C° 0 mm 1 mps 622 mmHg 54%
    18:00 +14°C° 0 mm 1 mps 621 mmHg 61%
    19:00 +13°C° 0 mm 1 mps 622 mmHg 64%
    20:00 +12°C° 0 mm 1 mps 622 mmHg 67%
    21:00 +11°C° 0 mm 1 mps 622 mmHg 70%
    22:00 +11°C° 0 mm 1 mps 621 mmHg 71%
    23:00 +11°C° 0 mm 1 mps 621 mmHg 72%

    30 Septiembre, Domingo

    Tiempo Temperatura Precipitaciones Viento Presión Humedad
    00:00 +10°C° 0 mm 1 mps 621 mmHg 73%
    01:00 +10°C° 0 mm 1 mps 621 mmHg 74%
    02:00 +10°C° 0 mm 1 mps 621 mmHg 74%
    03:00 +10°C° 0 mm 1 mps 621 mmHg 75%
    04:00 +9°C° 0 mm 1 mps 621 mmHg 75%
    05:00 +9°C° 0 mm 1 mps 621 mmHg 75%
    06:00 +9°C° 0 mm 1 mps 621 mmHg 76%
    07:00 +12°C° 0 mm 1 mps 622 mmHg 68%
    08:00 +14°C° 0 mm 1 mps 624 mmHg 60%
    09:00 +18°C° 0 mm 1 mps 625 mmHg 52%
    10:00 +18°C° 0.1 mm 1 mps 625 mmHg 49%
    11:00 +19°C° 0.1 mm 1 mps 625 mmHg 47%
    12:00 +19°C° 0.1 mm 2 mps 625 mmHg 44%
    13:00 +18°C° 0.2 mm 2 mps 625 mmHg 47%
    14:00 +18°C° 0.2 mm 2 mps 625 mmHg 49%
    15:00 +17°C° 0.2 mm 2 mps 624 mmHg 51%
    16:00 +16°C° 0.1 mm 2 mps 624 mmHg 57%
    17:00 +14°C° 0.1 mm 2 mps 623 mmHg 63%
    18:00 +12°C° 0.1 mm 2 mps 623 mmHg 69%
    19:00 +10°C° 0 mm 2 mps 623 mmHg 72%
    20:00 +9°C° 0 mm 2 mps 623 mmHg 76%
    21:00 +8°C° 0 mm 2 mps 623 mmHg 79%
    22:00 +8°C° 0 mm 2 mps 623 mmHg 79%
    23:00 +7°C° 0 mm 2 mps 622 mmHg 79%
    Mostrar más